[[{"header":{"parameterUnit":"m.s-1","parameterCategory":1,"la1":30.2991,"la2":30.254,"lo1":-89.0895,"lo2":-89.0444,"dy":0.0017,"dx":0.0017,"nx":28,"ny":28,"refTime":"2025-01-16T09:00:00:Z","depth":0,"parameterNumber":2,"parameterNumberName":"U-component_of_WINDS"},"data":[0,0,0,0,0,0,0,0,0,0,0,0,0,0,0,0,0,0,0,0,0,0,0,0,0,0,0,0,0,0,0,0,0,0,0,0,0,0,0,0,0,0,0,0,0,0,0,0,0,0,0,0,0,0,0,0,0,0,1.2143,1.2143,0,1.2207,1.2208,1.2209,1.2226,1.2226,1.2225,1.2225,1.2293,1.2295,1.2298,0,0,0,0,0,0,0,0,0,0,0,0,0,1.2037,1.2039,1.2142,1.2143,1.2144,1.2207,1.2208,1.2209,1.2226,1.2226,1.2225,1.2225,1.2293,1.2295,1.2298,0,0,0,0,0,0,0,0,0,0,0,0,0,1.209,1.204,1.2142,1.216,1.2163,1.2207,1.2208,1.2209,1.2226,1.2226,1.2225,1.2225,1.2292,1.2295,1.2298,1.233,0,0,1.2308,1.231,0,0,0,0,0,0,0,0,1.2087,1.2094,1.2157,1.2159,1.2162,1.2208,1.2196,1.225,1.2227,1.2202,1.2225,1.2224,1.2266,1.2271,1.2284,1.2333,1.2336,1.2308,1.231,1.2312,1.2313,0,0,0,0,0,0,0,1.2084,1.2092,1.2168,1.2158,1.2161,1.2166,1.2173,1.2206,1.2236,1.2204,1.2206,1.2213,1.2267,1.2281,1.2286,1.2337,1.2308,1.2311,1.2313,1.2314,1.2417,1.2418,0,0,0,0,0,0,1.2077,1.2088,1.2166,1.217,1.2122,1.2169,1.2176,1.2194,1.2236,1.2242,1.2213,1.2214,1.2276,1.2282,1.2289,1.233,1.2312,1.2315,1.2317,1.2416,1.2417,1.2418,0,0,0,0,0,0,1.2074,1.2083,1.2163,1.213,1.214,1.2171,1.219,1.2195,1.221,1.2243,1.2249,1.2222,1.2276,1.2284,1.232,1.2332,1.2316,1.2319,1.2415,1.2417,1.2418,1.2412,0,0,0,0,0,0,1.2071,1.2082,1.2094,1.213,1.2142,1.2193,1.2191,1.2197,1.2215,1.2216,1.2253,1.2258,1.2276,1.2315,1.2323,1.2337,1.2322,1.2414,1.2416,1.2417,1.2411,1.2412,1.2414,0,0,0,0,0,1.2067,1.209,1.2094,1.2104,1.2157,1.2193,1.22,1.2219,1.2216,1.2229,1.225,1.2257,1.2329,1.2318,1.2328,1.2342,1.2414,1.2415,1.2417,1.241,1.2412,1.2414,0,0,0,0,0,0,1.2055,1.2095,1.21,1.2135,1.216,1.2196,1.2212,1.222,1.2248,1.2248,1.2271,1.2279,1.2314,1.2332,1.2318,1.2376,1.2372,1.2376,1.2363,1.2365,1.2367,1.2362,1.2324,0,0,0,0,0,1.2056,1.2081,1.2115,1.2142,1.2155,1.2181,1.2198,1.221,1.2238,1.2249,1.2273,1.2301,1.233,1.2349,1.2377,1.2413,1.2423,1.2428,1.243,1.2431,1.2434,1.2456,1.246,1.2424,1.2424,1.2424,0,0,1.2059,1.2084,1.2098,1.214,1.2162,1.2189,1.219,1.2218,1.2239,1.2254,1.2289,1.2308,1.234,1.2377,1.2394,1.2393,1.2446,1.2433,1.2434,1.2436,1.2458,1.2462,1.2465,1.2425,1.2425,1.2424,0,0,1.2077,1.2098,1.2124,1.2146,1.2178,1.2196,1.2202,1.2237,1.225,1.2285,1.2298,1.2323,1.2372,1.2395,1.2413,1.2443,1.2451,1.2451,1.2459,1.2481,1.2483,1.2486,1.2498,1.2502,1.2454,1.2454,1.2454,0,1.2077,1.2117,1.2136,1.2164,1.2183,1.2197,1.2225,1.2245,1.2285,1.2298,1.2296,1.2359,1.2382,1.2425,1.2432,1.2446,1.2455,1.2447,1.2481,1.2484,1.2487,1.2499,1.2503,1.2454,1.2454,1.2454,1.2454,0,1.2116,1.2143,1.2161,1.2199,1.222,1.2247,1.2271,1.229,1.2301,1.232,1.2357,1.2385,1.242,1.2431,1.2442,1.2476,1.2475,1.2477,1.2473,1.249,1.2501,1.2506,1.2454,1.2454,1.2454,1.2454,0,0,1.2128,1.2177,1.2183,1.2202,1.2239,1.2262,1.229,1.2324,1.2341,1.2368,1.2394,1.2436,1.2438,1.2459,1.2473,1.2492,1.2515,1.2492,1.2493,1.2496,1.2556,1.2555,1.256,1.252,1.2521,1.2522,1.2554,0,1.2153,1.2203,1.2222,1.2264,1.2291,1.2306,1.2332,1.2358,1.2376,1.2403,1.2423,1.2453,1.2453,1.2466,1.2485,1.2508,1.2528,1.2506,1.2546,1.2547,1.2538,1.2566,1.2564,1.2593,1.2558,1.2559,1.256,0,1.2188,1.2216,1.2261,1.2296,1.2308,1.233,1.2364,1.2388,1.2419,1.2432,1.2455,1.2468,1.25,1.2494,1.2539,1.2524,1.2542,1.2556,1.2557,1.2562,1.2555,1.2572,1.2602,1.2607,1.2567,1.2566,1.2565,0,1.2194,1.2243,1.2276,1.2291,1.2333,1.2349,1.2367,1.2398,1.2417,1.2447,1.246,1.2493,1.2512,1.2538,1.256,1.2553,1.2604,1.2599,1.2616,1.2616,1.2626,1.2626,1.2661,1.2636,1.2636,1.2636,1.2636,0,1.222,1.2247,1.228,1.2301,1.2332,1.2354,1.2385,1.2404,1.2432,1.2457,1.2472,1.2496,1.2524,1.2552,1.2569,1.2605,1.2613,1.2625,1.2629,1.2624,1.2623,1.2636,1.2635,1.2637,1.2637,1.2637,1.2636,0,1.2232,1.2255,1.2293,1.2329,1.2339,1.2361,1.2393,1.2415,1.2434,1.2467,1.2476,1.2506,1.254,1.2565,1.2608,1.262,1.2659,1.2663,1.2649,1.2651,1.2667,1.2666,1.2713,1.2721,1.269,1.269,1.2691,0,1.2247,1.2268,1.2308,1.2326,1.2344,1.2373,1.2394,1.2416,1.2437,1.2475,1.2492,1.2527,1.2556,1.261,1.2637,1.2671,1.2677,1.2691,1.2682,1.2677,1.2679,1.2677,1.268,1.2692,1.2693,1.2693,1.2693,0,1.2272,1.2283,1.2311,1.2344,1.2368,1.2395,1.2423,1.2437,1.2465,1.2488,1.2523,1.2545,1.2591,1.2626,1.2663,1.2683,1.2693,1.2696,1.2702,1.2697,1.2688,1.2694,1.2653,1.2695,1.2694,1.2694,1.2694,1.2694,1.2288,1.2308,1.2339,1.2371,1.2394,1.2419,1.2442,1.2464,1.2493,1.2531,1.2543,1.258,1.2612,1.2663,1.2683,1.2713,1.2713,1.2721,1.2723,1.2725,1.2726,1.2682,1.272,1.272,1.272,1.272,1.272,0,1.2315,1.2336,1.2364,1.2402,1.2428,1.2435,1.2466,1.2487,1.2519,1.2547,1.2576,1.2617,1.2651,1.2681,1.2717,1.2735,1.2741,1.2744,1.2744,1.2748,1.2723,1.2715,1.2739,1.2739,1.2739,1.2739,1.2739,1.2739,1.2332,1.2367,1.2381,1.2429,1.245,1.2485,1.2503,1.2527,1.255,1.2595,1.2624,1.2643,1.2673,1.2711,1.2744,1.2752,1.2765,1.2767,1.2776,1.2752,1.275,1.2748,1.274,1.2769,1.2769,1.2799,1.2799,1.28]},{"header":{"parameterUnit":"m.s-1","parameterCategory":1,"la1":30.2991,"la2":30.254,"lo1":-89.0895,"lo2":-89.0444,"dy":0.0017,"dx":0.0017,"nx":28,"ny":28,"refTime":"2025-01-16T09:00:00:Z","depth":0,"parameterNumber":3,"parameterNumberName":"V-component_of_WINDS"},"data":[0,0,0,0,0,0,0,0,0,0,0,0,0,0,0,0,0,0,0,0,0,0,0,0,0,0,0,0,0,0,0,0,0,0,0,0,0,0,0,0,0,0,0,0,0,0,0,0,0,0,0,0,0,0,0,0,0,0,-1.0751,-1.0751,0,-1.074,-1.074,-1.074,-1.0799,-1.0801,-1.0802,-1.0804,-1.0788,-1.0786,-1.0784,0,0,0,0,0,0,0,0,0,0,0,0,0,-1.0823,-1.0822,-1.0751,-1.0751,-1.0751,-1.074,-1.074,-1.074,-1.0799,-1.0801,-1.0803,-1.0805,-1.0789,-1.0786,-1.0784,0,0,0,0,0,0,0,0,0,0,0,0,0,-1.08,-1.0821,-1.0751,-1.0779,-1.0782,-1.074,-1.074,-1.074,-1.0798,-1.0801,-1.0803,-1.0806,-1.079,-1.0787,-1.0784,-1.0713,0,0,-1.0774,-1.0773,0,0,0,0,0,0,0,0,-1.0801,-1.0797,-1.0775,-1.0777,-1.078,-1.0774,-1.0759,-1.0731,-1.0797,-1.0792,-1.0804,-1.0807,-1.0781,-1.0779,-1.0771,-1.0713,-1.0712,-1.0774,-1.0772,-1.0771,-1.077,0,0,0,0,0,0,0,-1.0803,-1.0798,-1.0747,-1.0775,-1.0778,-1.0792,-1.0792,-1.0754,-1.0772,-1.0792,-1.0797,-1.0795,-1.0783,-1.0774,-1.0771,-1.0712,-1.0774,-1.0772,-1.077,-1.0769,-1.0599,-1.0597,0,0,0,0,0,0,-1.0801,-1.0799,-1.0747,-1.0746,-1.0797,-1.0789,-1.0788,-1.0773,-1.0773,-1.0775,-1.0793,-1.0798,-1.0778,-1.0774,-1.0771,-1.0691,-1.0771,-1.0768,-1.0767,-1.0602,-1.0599,-1.0596,0,0,0,0,0,0,-1.0802,-1.0796,-1.0748,-1.0774,-1.0769,-1.0785,-1.0767,-1.0771,-1.0762,-1.0773,-1.0776,-1.078,-1.0779,-1.0775,-1.0728,-1.0691,-1.0767,-1.0764,-1.0605,-1.0601,-1.0597,-1.0529,0,0,0,0,0,0,-1.0804,-1.0796,-1.0769,-1.0773,-1.0767,-1.0705,-1.0765,-1.0769,-1.0758,-1.0764,-1.0762,-1.0764,-1.0781,-1.0733,-1.0725,-1.0688,-1.0762,-1.0609,-1.0603,-1.0599,-1.0535,-1.0523,-1.0514,0,0,0,0,0,-1.0806,-1.0749,-1.0767,-1.0761,-1.0734,-1.0703,-1.07,-1.0722,-1.0754,-1.0728,-1.0735,-1.0764,-1.0696,-1.0727,-1.072,-1.0681,-1.0611,-1.0605,-1.0599,-1.054,-1.0526,-1.0514,0,0,0,0,0,0,-1.0738,-1.075,-1.077,-1.0712,-1.0707,-1.0713,-1.068,-1.0706,-1.069,-1.0696,-1.0723,-1.0722,-1.0672,-1.0672,-1.0706,-1.0615,-1.0659,-1.0651,-1.0617,-1.0604,-1.0593,-1.0594,-1.0759,0,0,0,0,0,-1.0716,-1.0691,-1.0702,-1.065,-1.0646,-1.0664,-1.0651,-1.0669,-1.0663,-1.0661,-1.0664,-1.0657,-1.0635,-1.0619,-1.0599,-1.0535,-1.0537,-1.0505,-1.0495,-1.0486,-1.0479,-1.0449,-1.0435,-1.0576,-1.0576,-1.0576,0,0,-1.0671,-1.0674,-1.0656,-1.0636,-1.0634,-1.0607,-1.0661,-1.0629,-1.061,-1.0655,-1.0613,-1.0615,-1.0609,-1.0555,-1.0531,-1.0554,-1.0441,-1.0478,-1.0471,-1.0469,-1.0441,-1.0428,-1.0416,-1.0572,-1.0573,-1.0573,0,0,-1.0575,-1.0574,-1.0532,-1.053,-1.0527,-1.0539,-1.0529,-1.0533,-1.0537,-1.0495,-1.053,-1.0507,-1.0467,-1.0462,-1.0454,-1.0361,-1.0388,-1.0353,-1.0298,-1.0268,-1.0257,-1.0247,-1.0216,-1.0204,-1.0346,-1.0346,-1.0346,0,-1.0518,-1.048,-1.0507,-1.0474,-1.0466,-1.0508,-1.0467,-1.0462,-1.0452,-1.0445,-1.047,-1.0424,-1.0422,-1.0369,-1.0347,-1.0338,-1.0329,-1.0354,-1.0256,-1.0247,-1.0238,-1.0209,-1.0197,-1.0342,-1.0342,-1.0343,-1.0343,0,-1.0412,-1.0385,-1.0351,-1.0343,-1.0331,-1.0293,-1.0315,-1.0299,-1.0319,-1.0329,-1.0287,-1.0288,-1.027,-1.0259,-1.0276,-1.0209,-1.0223,-1.0252,-1.0297,-1.022,-1.0193,-1.0182,-1.0336,-1.0338,-1.0339,-1.034,0,0,-1.027,-1.028,-1.0268,-1.0266,-1.0268,-1.0247,-1.0213,-1.0198,-1.0184,-1.0176,-1.0149,-1.0116,-1.0144,-1.0135,-1.0153,-1.0127,-1.0056,-1.0159,-1.016,-1.0142,-0.9985,-0.9964,-0.995,-1.0074,-1.0072,-1.007,-0.9986,0,-1.0177,-1.0121,-1.0146,-1.0087,-1.0064,-1.0106,-1.0076,-1.0074,-1.0083,-1.0065,-1.0075,-1.0052,-1.0089,-1.0085,-1.0061,-1.007,-1.0025,-1.0076,-1.0049,-1.0048,-1.0051,-0.9936,-0.9913,-0.9833,-0.9975,-0.9973,-0.9972,0,-1.0061,-1.0053,-0.9992,-1.0001,-0.9992,-0.9965,-0.9955,-0.9937,-0.9936,-0.9945,-0.9937,-0.9962,-0.993,-0.9975,-0.9931,-0.9966,-0.9956,-0.996,-0.9957,-0.9956,-1.0006,-0.9933,-0.9808,-0.9796,-0.9955,-0.9956,-0.9958,0,-0.9967,-0.9939,-0.99,-0.9897,-0.9906,-0.9887,-0.989,-0.9892,-0.9882,-0.9873,-0.9867,-0.9853,-0.9846,-0.9835,-0.9856,-0.9886,-0.981,-0.9856,-0.9818,-0.9817,-0.98,-0.9801,-0.9673,-0.9791,-0.9792,-0.9792,-0.9792,0,-0.9862,-0.9823,-0.9858,-0.9834,-0.9793,-0.9823,-0.9781,-0.9788,-0.9791,-0.9769,-0.9803,-0.9782,-0.9811,-0.9793,-0.9809,-0.9772,-0.9768,-0.9774,-0.9779,-0.9772,-0.9771,-0.9767,-0.9774,-0.9789,-0.9789,-0.979,-0.9791,0,-0.9749,-0.977,-0.9731,-0.9745,-0.9748,-0.9717,-0.9728,-0.9707,-0.972,-0.9693,-0.9688,-0.9708,-0.9689,-0.9709,-0.969,-0.9701,-0.9652,-0.9664,-0.9653,-0.9657,-0.9618,-0.9622,-0.9484,-0.9468,-0.9595,-0.9594,-0.9593,0,-0.9681,-0.9653,-0.9665,-0.9654,-0.9656,-0.9637,-0.9629,-0.9658,-0.9647,-0.9647,-0.9626,-0.961,-0.9599,-0.9567,-0.9579,-0.9566,-0.9579,-0.9531,-0.9577,-0.9572,-0.9581,-0.9583,-0.9581,-0.9522,-0.9521,-0.9519,-0.9518,0,-0.9559,-0.9572,-0.9559,-0.9551,-0.9541,-0.9536,-0.9532,-0.9521,-0.9552,-0.9538,-0.9521,-0.9512,-0.9496,-0.948,-0.9471,-0.9474,-0.9501,-0.9504,-0.9495,-0.9488,-0.9483,-0.9488,-0.963,-0.9507,-0.9508,-0.9509,-0.951,-0.951,-0.9467,-0.9446,-0.9453,-0.9438,-0.944,-0.9437,-0.9419,-0.9432,-0.9418,-0.9408,-0.9426,-0.9404,-0.9407,-0.9398,-0.9398,-0.9382,-0.9402,-0.9387,-0.9384,-0.9381,-0.9376,-0.9485,-0.938,-0.938,-0.938,-0.9381,-0.9381,0,-0.9349,-0.9356,-0.9343,-0.934,-0.9329,-0.9358,-0.9357,-0.9346,-0.9328,-0.9329,-0.9319,-0.93,-0.9286,-0.9299,-0.9288,-0.9272,-0.9285,-0.9268,-0.927,-0.9271,-0.9357,-0.9368,-0.9259,-0.9259,-0.9259,-0.9259,-0.9259,-0.9259,-0.9286,-0.9253,-0.9267,-0.9236,-0.9243,-0.9224,-0.9222,-0.922,-0.9222,-0.92,-0.919,-0.9199,-0.9205,-0.9196,-0.9185,-0.9189,-0.9184,-0.9164,-0.9172,-0.9253,-0.9265,-0.9276,-0.9286,-0.9162,-0.9162,-0.9088,-0.9087,-0.9087]}]]